カタログに戻る

SL-8 DEB

LostLEO
NORAD 39700·DEBRIS·🇷🇺 Russia

打ち上げ Feb 12, 1991 から Plesetsk Cosmodrome

Loading…

次のパス (今後24時間)

TLE

古いSource: Space-Track

元期: Apr 7, 2025, 07:22 UTC

1 39700U 91009DP  25097.30722194  .00000566  00000-0  48478-2 0  9999
2 39700  73.9665 100.5594 0114004  32.1061 328.6856 12.29905155911147

AllMySatでSL-8 DEBをリアルタイム追跡

Download on the App Store